Simultaneous Nadir Overpasses (SNOs) Predictions

Prediction of SNOs between NOAA-19 and TERRA Satellite Orbit:

Table of predicted SNOs for the next 14.0 days since TLE Epoch: 6/27/2012
Index Date (NOAA-19) Time (NOAA-19) NOAA-19 Lat,Lon Date (TERRA) Time (TERRA) TERRA Lat,Lon Distance(km) Time Diff (sec)
1 06/28/2012 07:46:41 -68.98,-117.32 06/28/2012 07:46:56 -69.00,-117.34 2.87 15
2 06/28/2012 08:37:37 68.85, 50.12 06/28/2012 08:36:24 68.85, 50.10 0.79 73
3 06/30/2012 11:40:28 69.65, 3.32 06/30/2012 11:41:37 69.53, 4.64 52.63 69
4 06/30/2012 12:31:22 -68.97, 171.52 06/30/2012 12:31:15 -68.98, 171.55 1.36 7
5 06/30/2012 13:22:04 68.10, -20.05 06/30/2012 13:20:55 68.15, -21.83 73.89 69
6 07/02/2012 16:24:58 69.06, -66.99 07/02/2012 16:26:04 69.06, -67.06 2.78 66
7 07/02/2012 17:16:03 -68.96, 100.37 07/02/2012 17:15:34 -68.95, 100.43 2.96 29
8 07/04/2012 21:09:39 69.05,-138.15 07/04/2012 21:10:22 69.08,-138.12 2.90 43
9 07/04/2012 22:00:43 -68.90, 29.28 07/04/2012 21:59:53 -68.92, 29.31 1.78 50
10 07/07/2012 01:54:20 69.04, 150.70 07/07/2012 01:54:41 69.03, 150.75 2.15 21
11 07/07/2012 02:45:24 -68.90, -41.87 07/07/2012 02:44:12 -68.88, -41.82 3.09 72
12 07/09/2012 05:48:15 -69.69, -88.66 07/09/2012 05:49:25 -69.54, -87.30 55.14 70
13 07/09/2012 06:39:00 68.97, 79.63 07/09/2012 06:39:00 68.99, 79.61 1.65 0
14 07/09/2012 07:29:51 -68.14,-112.04 07/09/2012 07:28:42 -68.22,-113.70 69.33 69
15 07/11/2012 10:32:45 -69.10,-158.98 07/11/2012 10:33:51 -69.11,-158.96 0.84
